This is the latest recevied weather packets stored in our database for station/object KB3KBR-WX. If no packets are shown the sender has not sent any weather packets the latest 10 day(s).
| Time | Temp. | Humidity | Pressure | Rain* | Wind** | Luminosity | Snow |
|---|---|---|---|---|---|---|---|
| 1778058601 | 10° C | 94% | 1003.1 hPa | 3.81 mm | - | - | - |
| 1778058271 | 10° C | 94% | 1003 hPa | 3.56 mm | - | - | - |
| 1778057970 | 10.56° C | 94% | 1003.1 hPa | 3.56 mm | - | - | - |
| 1778057670 | 10.56° C | 94% | 1003 hPa | 3.05 mm | - | - | - |
| 1778057340 | 10.56° C | 94% | 1003 hPa | 3.05 mm | - | - | - |
| 1778057010 | 10.56° C | 94% | 1003 hPa | 2.29 mm | - | - | - |
| 1778056680 | 11.11° C | 94% | 1002.8 hPa | 2.03 mm | - | - | - |
| 1778056350 | 11.11° C | 94% | 1002.6 hPa | 1.78 mm | - | - | - |
| 1778056020 | 11.11° C | 94% | 1002.6 hPa | 1.78 mm | - | - | - |
| 1778055690 | 11.11° C | 95% | 1002.6 hPa | 1.52 mm | - | - | - |
| 1778055390 | 11.11° C | 94% | 1002.6 hPa | 1.27 mm | - | - | - |
| 1778055061 | 11.11° C | 94% | 1002.6 hPa | 1.52 mm | - | - | - |
| 1778054730 | 11.11° C | 94% | 1002.6 hPa | 1.27 mm | - | - | - |
| 1778054403 | 11.11° C | 94% | 1002.6 hPa | 1.27 mm | - | - | - |
| 1778054115 | 11.11° C | 94% | 1002.6 hPa | 1.52 mm | - | - | - |
| 1778054070 | 11.11° C | 94% | 1002.6 hPa | 1.52 mm | - | - | - |
| 1778053740 | 11.11° C | 94% | 1002.5 hPa | 1.27 mm | - | - | - |
| 1778053440 | 11.11° C | 94% | 1002.5 hPa | 1.27 mm | - | - | - |
| 1778053110 | 11.67° C | 94% | 1002.6 hPa | 1.27 mm | - | - | - |
| 1778052613 | 11.67° C | 94% | 1002.8 hPa | 1.27 mm | - | - | - |
| 1778052510 | 11.67° C | 94% | 1002.8 hPa | 1.27 mm | - | - | - |
| 1778052180 | 11.67° C | 94% | 1002.9 hPa | 1.27 mm | - | - | - |
| 1778052016 | 11.67° C | 94% | 1003 hPa | 1.52 mm | - | - | - |
| 1778051880 | 11.67° C | 94% | 1003 hPa | 1.52 mm | - | - | - |
| 1778051550 | 11.67° C | 94% | 1003.1 hPa | 1.52 mm | - | - | - |
* Rain latest hour (hover to see other rain measurements)
** Current wind speed in m/s (hover to see current wind gust speed)